Weather in Zavodouspenskoye

Russia / Sverdlovsk Oblast     56°51′41″N   65°01′10″E
temp.,
°C
wind,
m/s
gust,
m/s
humid.,
%
clouds,
%
prec.,
mm/h
press.,
hPa
HPBL,
m
3 august, tue
tue323:00+17wnw3870100 0.0 1012165
02:00+17w2570100 0.0 1012100
05:00+15wsw2795100 0.9 1011161
08:00+18w38870 0.5 1011344
11:00+25wnw47585 0.6 10111364
14:00+27nnw584394 0.1 10102467
17:00+25nnw3751100 0.1 1010444
20:00+21nne2567100 0.0 1011113
4 august, wed
wed423:00+19ne1168100 0.0 101215
02:00+16nne118131 0.0 101311
05:00+14ne22905 0.0 101412
08:00+20ese226773 0.0 1014292
11:00+25se114646 0.0 10141241
14:00+28n13395 0.0 10132045
17:00+27n3440100 0.0 10132038
20:00+21ese2265100 0.0 101243
5 august, thu
thu523:00+20se2560100 0.0 1013117
02:00+18s276546 0.0 1012143
05:00+17sse257225 0.0 101289
08:00+21s366197 0.0 1012286
11:00+27s344873 0.0 1011807
14:00+30ssw45435 0.0 10091453
17:00+30ssw354387 0.0 10091670
20:00+21sse41187100 2.1 1008201
6 august, fri
fri623:00+19sw31294100 7.5 1008301
02:00+18sw3796100 1.7 1008177
05:00+17nnw2498100 1.8 1007111
08:00+20w339297 0.0 1008429
11:00+23wnw236554 0.0 1008849
14:00+25w445339 0.0 10081415
17:00+24w34515 0.0 10081352
20:00+19wnw48724 0.0 1009400
7 august, sat
sat723:00+15wnw25950 0.0 1010120
02:00+14wnw23974 0.0 100963
05:00+13w239729 0.0 101079
08:00+18nw358591 0.0 1010565
11:00+18nw4586100 0.1 1011682
14:00+21nnw566871 0.1 10121036
17:00+22nnw466047 0.1 10121311
20:00+19nnw377411 0.1 1013229